User: anonymous
Location: Caltech
(34.1382°N, 118.1253°W)
Time: 03:14:42
(UTC-07:00)
Language:

Cosmos 1939 Rocket - Orbit

View from above orbital plane
View from above orbital plane
View from above satellite
View from above satellite

Ground track
Ground track

The orbit data is extracted from the following two-line orbital elements,

1 19046U 88032B   14105.74201709  .00001673  00000-0  14041-3 0  8351
2 19046 097.6537 161.3732 0034727 307.6913 052.1162 14.99271659398846
Epoch (UTC): 15 April 2014 17:48:30
Eccentricity: 0.0034727
inclination: 97.6537°
perigee height: 545 km
apogee height: 593 km
right ascension of ascending node: 161.3732°
argument of perigee: 307.6913°
revolutions per day: 14.99271659
mean anomaly at epoch: 52.1162°
orbit number at epoch: 39884

The dashed part of the orbit path shows where the satellite is in the earth's shadow,  

DLR